Weather History for Cheboygan, MI

Change the Weather History Date:

Saturday, December 17, 2011

  Actual Average (KPLN) Record (KPLN)
Temperature  
Mean Temperature 18 °F -  
Max Temperature 26 °F 30 °F 44 °F (2006)
Min Temperature 10 °F 14 °F -20 °F (1980)
Degree Days  
Heating Degree Days 47    
Moisture  
Dew Point 15 °F    
Average Humidity 77    
Maximum Humidity 92    
Minimum Humidity 60    
Precipitation  
Precipitation 0.00 in - - ()
Sea Level Pressure  
Sea Level Pressure 30.22 in    
Wind  
Wind Speed 5 mph (SSE)    
Max Wind Speed 9 mph    
Max Gust Speed -    
Visibility 9 miles    
Events Snow    
Averages and records for this station are not official NWS values.
T = Trace of Precipitation, MM = Missing Value Source: NWS Daily Summary

Daily Weather History Graph

Daily Weather History Graph

Search for Another Location

Airport:

Trip Planner

Search our weather history database for the weather conditions in past years. The results will help you decide how hot, cold, wet, or windy it might be!

Date:

Astronomy

Dec. 17, 2011 Rise Set
Actual Time 8:13 AM EST 4:55 PM EST
Civil Twilight 7:38 AM EST 5:29 PM EST
Nautical Twilight 7:01 AM EST 6:07 PM EST
Astronomical Twilight 6:24 AM EST 6:43 PM EST
Moon No Moon Rise 12:07 PM EST (12/17)
Length of Visible Light 9h 50m
Length of Day
8h 41m
Waning Gibbous, 54% of the Moon is Illuminated
Dec 17
Waning Gibbous
Dec 17
Last Quarter
Dec 24
New
Jan 1
First Quarter
Jan 9
Full

Hourly Weather History & Observations

Time (EST) Temp. Windchill Dew Point Humidity Pressure Visibility Wind Dir Wind Speed Gust Speed Precip Events Conditions
12:14 AM 21.2 °F 14.9 °F 15.8 °F 80% 30.29 in 10.0 mi WNW 4.6 mph - N/A   Overcast
12:35 AM 21.6 °F 15.3 °F 16.0 °F 79% 30.29 in 10.0 mi West 4.6 mph - N/A   Overcast
12:54 AM 21.9 °F 11.7 °F 16.3 °F 79% 30.29 in 10.0 mi NW 9.2 mph - N/A   Overcast
1:14 AM 21.6 °F 14.0 °F 17.4 °F 84% 30.30 in 7.0 mi NE 5.8 mph - N/A Snow Light Snow
1:34 AM 21.2 °F - 17.2 °F 85% 30.30 in 5.0 mi Calm Calm - N/A Snow Light Snow
1:54 AM 20.8 °F 13.2 °F 17.2 °F 86% 30.30 in 4.0 mi ENE 5.8 mph - N/A Snow Light Snow
2:14 AM 20.7 °F 11.0 °F 16.9 °F 85% 30.30 in 7.0 mi ENE 8.1 mph - N/A Snow Light Snow
2:35 AM 20.5 °F 11.7 °F 16.2 °F 83% 30.30 in 7.0 mi NE 6.9 mph - N/A Snow Light Snow
2:54 AM 20.3 °F 13.8 °F 15.8 °F 83% 30.30 in 7.0 mi NE 4.6 mph - N/A Snow Light Snow
3:15 AM 20.1 °F 12.3 °F 15.8 °F 83% 30.31 in 2.5 mi NNE 5.8 mph - N/A Snow Light Snow
3:34 AM 19.8 °F 14.7 °F 16.0 °F 85% 30.30 in 4.0 mi ENE 3.5 mph - N/A Snow Light Snow
3:54 AM 19.6 °F - 15.1 °F 83% 30.30 in 10.0 mi Calm Calm - N/A Snow Light Snow
4:15 AM 18.5 °F 11.7 °F 13.6 °F 81% 30.30 in 10.0 mi NNE 4.6 mph - N/A   Mostly Cloudy
4:34 AM 17.4 °F - 12.2 °F 80% 30.30 in 10.0 mi Calm Calm - N/A   Mostly Cloudy
4:54 AM 15.8 °F - 11.8 °F 84% 30.30 in 10.0 mi Calm Calm - N/A   Scattered Clouds
5:14 AM 14.0 °F - 11.3 °F 89% 30.30 in 10.0 mi Calm Calm - N/A   Clear
5:35 AM 12.9 °F - 10.9 °F 92% 30.30 in 10.0 mi Calm Calm - N/A   Clear
5:55 AM 12.2 °F - 10.2 °F 92% 30.30 in 10.0 mi Calm Calm - N/A   Clear
6:14 AM 11.3 °F - 9.3 °F 92% 30.30 in 10.0 mi Calm Calm - N/A   Clear
6:35 AM 11.3 °F - 9.1 °F 91% 30.30 in 10.0 mi Calm Calm - N/A   Clear
7:14 AM 11.7 °F - 9.1 °F 90% 30.30 in 10.0 mi Calm Calm - N/A   Clear
7:35 AM 11.3 °F - 8.6 °F 89% 30.30 in 10.0 mi Calm Calm - N/A   Clear
8:14 AM 10.6 °F - 8.4 °F 91% 30.29 in 10.0 mi Calm Calm - N/A   Clear
8:35 AM 14.0 °F 8.2 °F 11.3 °F 89% 30.28 in 10.0 mi SSE 3.5 mph - N/A   Clear
8:54 AM 16.3 °F 9.2 °F 12.2 °F 84% 30.28 in 10.0 mi SSE 4.6 mph - N/A   Clear
9:14 AM 16.3 °F 10.8 °F 11.8 °F 82% 30.28 in 10.0 mi SSE 3.5 mph - N/A   Clear
9:34 AM 16.3 °F 9.2 °F 12.2 °F 84% 30.28 in 10.0 mi SSE 4.6 mph - N/A   Clear
9:54 AM 18.3 °F 11.5 °F 14.0 °F 83% 30.27 in 10.0 mi SSE 4.6 mph - N/A   Clear
10:15 AM 19.6 °F 11.7 °F 15.6 °F 85% 30.27 in 10.0 mi SSE 5.8 mph - N/A   Clear
10:34 AM 20.8 °F 13.2 °F 15.6 °F 80% 30.26 in 10.0 mi SSE 5.8 mph - N/A   Clear
10:54 AM 21.6 °F 15.3 °F 15.6 °F 78% 30.26 in 10.0 mi SE 4.6 mph - N/A   Clear
11:14 AM 22.1 °F 12.8 °F 15.1 °F 74% 30.25 in 10.0 mi SE 8.1 mph - N/A   Clear
11:34 AM 23.0 °F 15.8 °F 14.9 °F 71% 30.25 in 10.0 mi SE 5.8 mph - N/A   Clear
11:55 AM 23.5 °F 15.4 °F 14.2 °F 67% 30.24 in 10.0 mi SSE 6.9 mph - N/A   Clear
12:14 PM 23.5 °F 16.4 °F 15.3 °F 71% 30.23 in 10.0 mi SSE 5.8 mph - N/A   Scattered Clouds
12:34 PM 24.4 °F 17.5 °F 14.9 °F 67% 30.23 in 10.0 mi SSE 5.8 mph - N/A   Scattered Clouds
12:55 PM 24.6 °F 18.8 °F 14.4 °F 65% 30.22 in 10.0 mi SSW 4.6 mph - N/A   Clear
1:14 PM 25.0 °F 18.1 °F 14.2 °F 64% 30.21 in 10.0 mi SSW 5.8 mph - N/A   Clear
1:34 PM 25.3 °F 21.1 °F 14.2 °F 63% 30.20 in 10.0 mi SSE 3.5 mph - N/A   Clear
1:54 PM 25.5 °F 17.8 °F 14.7 °F 64% 30.18 in 10.0 mi SSE 6.9 mph - N/A   Clear
2:14 PM 25.9 °F 19.2 °F 14.5 °F 62% 30.18 in 10.0 mi South 5.8 mph - N/A   Clear
2:34 PM 25.7 °F 21.5 °F 14.4 °F 62% 30.17 in 10.0 mi SSW 3.5 mph - N/A   Mostly Cloudy
2:54 PM 25.7 °F 21.5 °F 14.5 °F 63% 30.17 in 10.0 mi South 3.5 mph - N/A   Overcast
3:15 PM 26.4 °F 20.9 °F 14.7 °F 61% 30.16 in 10.0 mi South 4.6 mph - N/A   Overcast
3:34 PM 26.2 °F 20.7 °F 14.2 °F 60% 30.16 in 10.0 mi SSW 4.6 mph - N/A   Mostly Cloudy
3:54 PM 26.1 °F 17.6 °F 14.2 °F 61% 30.15 in 10.0 mi South 8.1 mph - N/A   Mostly Cloudy
4:15 PM 25.5 °F 18.7 °F 14.4 °F 63% 30.13 in 10.0 mi South 5.8 mph - N/A   Scattered Clouds
4:34 PM 25.2 °F 20.9 °F 14.4 °F 64% 30.13 in 10.0 mi South 3.5 mph - N/A   Scattered Clouds
4:54 PM 25.0 °F 19.3 °F 14.5 °F 65% 30.13 in 10.0 mi SSE 4.6 mph - N/A   Mostly Cloudy
5:34 PM 24.4 °F 18.6 °F 15.3 °F 68% 30.12 in 10.0 mi SSE 4.6 mph - N/A   Overcast
5:54 PM 23.9 °F 16.8 °F 15.6 °F 71% 30.11 in 10.0 mi SE 5.8 mph - N/A   Mostly Cloudy
6:15 PM 23.9 °F 16.8 °F 15.4 °F 70% 30.10 in 10.0 mi SE 5.8 mph - N/A   Mostly Cloudy
6:34 PM 23.9 °F 16.8 °F 15.6 °F 71% 30.10 in 10.0 mi SE 5.8 mph - N/A   Overcast
7:14 PM 24.8 °F 16.1 °F 15.8 °F 69% 30.09 in 10.0 mi SE 8.1 mph - N/A   Overcast
7:34 PM 24.4 °F 15.6 °F 16.3 °F 71% 30.08 in 10.0 mi SSE 8.1 mph - N/A Snow Light Snow
7:55 PM 24.8 °F 15.3 °F 16.7 °F 71% 30.08 in 10.0 mi SSE 9.2 mph - N/A   Overcast
8:14 PM 25.0 °F 17.1 °F 17.4 °F 73% 30.08 in 7.0 mi SSE 6.9 mph - N/A Snow Light Snow
8:34 PM 24.8 °F 16.1 °F 19.0 °F 79% 30.07 in 5.0 mi SSE 8.1 mph - N/A Snow Light Snow
8:55 PM 24.8 °F 16.1 °F 21.2 °F 86% 30.05 in 2.5 mi South 8.1 mph - N/A Snow Light Snow
9:14 PM 24.6 °F 16.7 °F 22.3 °F 91% 30.05 in 2.5 mi SSE 6.9 mph - N/A Snow Light Snow
9:34 PM 24.8 °F 16.1 °F 22.6 °F 91% 30.04 in 2.5 mi South 8.1 mph - N/A Snow Light Snow
9:55 PM 25.2 °F 15.7 °F 22.8 °F 91% 30.03 in 7.0 mi SSE 9.2 mph - N/A Snow Light Snow
10:14 PM 25.5 °F 16.9 °F 23.0 °F 90% 30.02 in 4.0 mi South 8.1 mph - N/A Snow Light Snow
10:34 PM 25.5 °F 17.8 °F 23.0 °F 90% 30.02 in 2.5 mi South 6.9 mph - N/A Snow Light Snow
10:54 PM 25.7 °F 18.0 °F 23.2 °F 90% 30.02 in 2.5 mi SSW 6.9 mph - N/A Snow Light Snow
11:14 PM 25.5 °F 17.8 °F 23.7 °F 93% 30.02 in 1.2 mi South 6.9 mph - N/A Snow Light Snow
11:34 PM 25.5 °F 16.9 °F 23.9 °F 94% 30.02 in 1.8 mi SSW 8.1 mph - N/A Snow Light Snow
11:54 PM 25.7 °F 20.1 °F 23.9 °F 93% 30.02 in 2.5 mi SSW 4.6 mph - N/A Snow Light Snow